Malaga, OH (43757)

03:14 AM EST die 18o November, anno 2017 (GMT -0500)
Jerusalem | | Change Station

Elev 1253 ft 39.86 °N, 81.11 °W | Updated 21 seconds ago

Plerumque Nubila
Plerumque Nubila
45.1 °F
Feels Like 41 °F
N
7.4
Ventus Variabilis Ventus from Inter Austrum et Zephyrum
Gusts 9.0 mph

Hodie
High -- | Low -- °F
--% Chance of Precip.
Yesterday
High -- | Low -- °F
Precip. -- in
Pressio 29.80 in
Visibilitas 10.0 milia passuum
Clouds Plerumque Nubila 10000 ft
Frigus Venti 41 °F
Frigus in quo Ros apparet 30 °F
Umor 56%
Rainfall 0.00 in
Snow Depth Not available.
7:13 AM 5:06 PM
Waning Crescent, 0% visible
METAR KHLG 180753Z AUTO 19009KT 10SM BKN100 09/M05 A2977 RMK AO2 SLP089 T00891050
Pressio 29.80 in
Visibilitas 10.0 milia passuum
Clouds Plerumque Nubila 10000 ft
Frigus Venti 41 °F
Frigus in quo Ros apparet 30 °F
Umor 56%
Rainfall 0.00 in
Snow Depth Not available.
7:13 AM 5:06 PM
Waning Crescent, 0% visible
METAR KHLG 180753Z AUTO 19009KT 10SM BKN100 09/M05 A2977 RMK AO2 SLP089 T00891050

Get Severe Weather Alerts

Thanks for signing up!

Be on the lookout for a verification email in your inbox.

You'll start receiving the daily forecast at 6 AM.

×

10-Day Weather Forecast

Almanac

Astronomy

Nov. 18, 2017 Rise Set
Actual Time
Civil Twilight
Nautical Twilight
Astronomical Twilight
Moon
Length Of Visible Light
Length of Day
Tomorrow will be .
, % of the Moon is Illuminated

Today's Extremes

State Highs State Lows

Community

WunderPhotos

Category 6

Welcome to Category 6. This is the collective home for Weather Underground's featured writeups by Dr. Jeff Masters (right), Bob Henson (left), Chris Burt, and other regular contributors.

Nearby

Air Quality

  Air Quality AQ Index Pollutant
Not available.

Snow Depth

Station Depth Elevation

Earthquake Activity

City Distance Mag. Time & Date
Minimum magnitude displayed is 2.5.

Coastal Water Temperatures

Locus Calor

Stations

Nearby Weather Stations

Station Location Temp Frigus Venti Frigus in quo Ros apparet Umor Ventus Precip. Elev Renovata Type
                   

Watches & Warnings

There are currently no watches in effect.